Location: Coll
(42.4728°N, 0.7714°E)
Time: 06:37:10
(UTC+00:00)

PSLV R/B - Pass Details

Date: 23 October 2020
Orbit: 595 x 628 km, 97.9° (Epoch: 23 November)

Event Time Altitude Azimuth Distance (km) Brightness Sun altitude
Rises 04:23:35 0° 7° (N) 2,870 7.1 -22.1°
Reaches altitude 10° 04:25:49 10° 1° (N) 1,967 6.2 -21.6°
Enters shadow 04:29:10 43° 320° (NW) 867 4.0 -21.0°
